Montevideo, MN

4:08 PM CST on December 15, 2017 (GMT -0600)
Montevideo-Chippewa County

Weather History for KMVE - September, 2012

Change the Weather History Date:

Sunday, September 16, 2012

  Actual Average Record
Temperature  
Mean Temperature 68 °F -  
Max Temperature 82 °F 72 °F 96 °F (1955)
Min Temperature 55 °F 48 °F 33 °F (1959)
Cooling Degree Days 4    
Growing Degree Days 18 (Base 50)    
Moisture  
Dew Point 37 °F    
Average Humidity 37    
Maximum Humidity 58    
Minimum Humidity 16    
Precipitation  
Precipitation 0.00 in - - ()
Sea Level Pressure  
Sea Level Pressure 29.92 in    
Wind  
Wind Speed 9 mph (North)    
Max Wind Speed 20 mph    
Max Gust Speed 26 mph    
Visibility 10 miles    
Events Thunderstorm    
Averages and records for this station are not official NWS values.
T = Trace of Precipitation, MM = Missing Value Source: NWS Daily Summary

Daily Weather History Graph

Daily Weather History Graph

Search for Another Location

Airport or City:

Trip Planner

Search our weather history database for the weather conditions in past years. The results will help you decide how hot, cold, wet, or windy it might be!

Date:

Astronomy

Sep. 16, 2012 Rise Set
Actual Time 7:03 AM CDT 7:30 PM CDT
Civil Twilight 6:33 AM CDT 8:00 PM CDT
Nautical Twilight 5:59 AM CDT 8:34 PM CDT
Astronomical Twilight 5:23 AM CDT 9:10 PM CDT
Moon 7:48 AM CDT (9/16) 7:30 PM CDT (9/16)
Length of Visible Light 13h 26m
Length of Day
12h 27m
New Moon, 0% of the Moon is Illuminated
Sep 16
New Moon
Sep 22
First Quarter
Sep 29
Full
Oct 8
Last Quarter
Oct 15
New

Hourly Weather History & Observations

Time (CDT) Temp. Dew Point Humidity Pressure Visibility Wind Dir Wind Speed Gust Speed Precip Events Conditions
12:14 AM 68.0 °F 35.6 °F 30% 29.90 in 10.0 mi SW 11.5 mph 17.3 mph N/A   Clear
12:34 AM 68.0 °F 35.6 °F 30% 29.90 in 10.0 mi SW 11.5 mph 16.1 mph N/A   Clear
12:55 AM 66.2 °F 37.4 °F 35% 29.90 in 10.0 mi SW 10.4 mph - N/A   Clear
1:14 AM 66.2 °F 37.4 °F 35% 29.90 in 10.0 mi SW 8.1 mph - N/A   Clear
1:34 AM 64.4 °F 39.2 °F 40% 29.90 in 10.0 mi SW 8.1 mph - N/A   Clear
1:55 AM 64.4 °F 39.2 °F 40% 29.90 in 10.0 mi WSW 8.1 mph - N/A   Clear
2:14 AM 62.6 °F 39.2 °F 42% 29.89 in 10.0 mi SW 8.1 mph - N/A   Clear
2:34 AM 62.6 °F 41.0 °F 45% 29.89 in 10.0 mi WSW 6.9 mph - N/A   Clear
2:55 AM 62.6 °F 42.8 °F 48% 29.89 in 10.0 mi WSW 6.9 mph - N/A   Clear
3:14 AM 62.6 °F 42.8 °F 48% 29.88 in 10.0 mi SW 8.1 mph - N/A   Clear
3:34 AM 62.6 °F 42.8 °F 48% 29.88 in 10.0 mi WSW 8.1 mph - N/A   Clear
3:54 AM 60.8 °F 42.8 °F 52% 29.88 in 10.0 mi WSW 5.8 mph - N/A   Clear
4:14 AM 60.8 °F 42.8 °F 52% 29.88 in 10.0 mi WSW 4.6 mph - N/A   Clear
4:34 AM 59.0 °F 42.8 °F 55% 29.87 in 10.0 mi WSW 5.8 mph - N/A   Clear
4:54 AM 60.8 °F 39.2 °F 45% 29.87 in 10.0 mi WSW 6.9 mph - N/A   Clear
5:14 AM 60.8 °F 39.2 °F 45% 29.88 in 10.0 mi West 5.8 mph - N/A   Clear
5:34 AM 59.0 °F 39.2 °F 48% 29.88 in 10.0 mi WSW 5.8 mph - N/A   Clear
5:54 AM 55.4 °F 41.0 °F 58% 29.88 in 10.0 mi WSW 5.8 mph - N/A   Clear
6:14 AM 57.2 °F 39.2 °F 51% 29.88 in 10.0 mi West 5.8 mph - N/A   Clear
6:34 AM 57.2 °F 39.2 °F 51% 29.89 in 10.0 mi West 6.9 mph - N/A   Clear
6:54 AM 57.2 °F 39.2 °F 51% 29.89 in 10.0 mi West 6.9 mph - N/A   Clear
7:14 AM 57.2 °F 37.4 °F 48% 29.89 in 10.0 mi West 5.8 mph - N/A   Clear
7:34 AM 57.2 °F 37.4 °F 48% 29.90 in 10.0 mi WNW 6.9 mph - N/A   Clear
7:54 AM 57.2 °F 37.4 °F 48% 29.90 in 10.0 mi WNW 5.8 mph - N/A   Clear
8:14 AM 57.2 °F 37.4 °F 48% 29.90 in 10.0 mi NNW 4.6 mph - N/A   Clear
8:34 AM 57.2 °F 39.2 °F 51% 29.91 in 10.0 mi NNW 8.1 mph - N/A   Clear
8:54 AM 59.0 °F 39.2 °F 48% 29.92 in 10.0 mi North 10.4 mph - N/A   Clear
9:14 AM 60.8 °F 39.2 °F 45% 29.91 in 10.0 mi NNE 10.4 mph - N/A   Clear
9:34 AM 60.8 °F 39.2 °F 45% 29.92 in 10.0 mi North 8.1 mph - N/A   Clear
9:54 AM 62.6 °F 39.2 °F 42% 29.92 in 10.0 mi North 6.9 mph - N/A   Clear
10:14 AM 64.4 °F 39.2 °F 40% 29.92 in 10.0 mi North 6.9 mph - N/A   Clear
10:34 AM 66.2 °F 39.2 °F 37% 29.93 in 10.0 mi NNE 8.1 mph - N/A   Clear
10:54 AM 68.0 °F 41.0 °F 37% 29.92 in 10.0 mi ENE 6.9 mph - N/A   Clear
11:15 AM 69.8 °F 41.0 °F 35% 29.92 in 10.0 mi ENE 5.8 mph - N/A   Clear
11:34 AM 71.6 °F 39.2 °F 31% 29.91 in 10.0 mi ENE 10.4 mph - N/A   Clear
11:54 AM 73.4 °F 39.2 °F 29% 29.91 in 10.0 mi East 8.1 mph - N/A   Clear
12:14 PM 73.4 °F 39.2 °F 29% 29.91 in 10.0 mi East 6.9 mph - N/A   Clear
12:34 PM 75.2 °F 37.4 °F 25% 29.91 in 10.0 mi ENE 9.2 mph - N/A   Clear
12:54 PM 77.0 °F 37.4 °F 24% 29.91 in 10.0 mi East 6.9 mph - N/A   Clear
1:14 PM 78.8 °F 37.4 °F 23% 29.91 in 10.0 mi NE 11.5 mph - N/A   Clear
1:34 PM 78.8 °F 37.4 °F 23% 29.90 in 10.0 mi Calm Calm - N/A   Clear
1:54 PM 80.6 °F 33.8 °F 18% 29.90 in 10.0 mi ENE 9.2 mph - N/A   Clear
2:14 PM 80.6 °F 33.8 °F 18% 29.89 in 10.0 mi East 10.4 mph - N/A   Clear
2:34 PM 80.6 °F 33.8 °F 18% 29.89 in 10.0 mi NE 9.2 mph - N/A   Clear
2:54 PM 82.4 °F 33.8 °F 17% 29.88 in 10.0 mi ENE 8.1 mph - N/A   Clear
3:14 PM 82.4 °F 33.8 °F 17% 29.88 in 10.0 mi NE 11.5 mph - N/A   Clear
3:34 PM 82.4 °F 32.0 °F 16% 29.88 in 10.0 mi East 5.8 mph 16.1 mph N/A   Clear
3:54 PM 80.6 °F 32.0 °F 17% 29.89 in 10.0 mi NE 12.7 mph - N/A   Clear
4:14 PM 82.4 °F 33.8 °F 17% 29.89 in 10.0 mi NE 16.1 mph - N/A   Clear
4:34 PM 80.6 °F 33.8 °F 18% 29.89 in 10.0 mi North 12.7 mph - N/A   Clear
4:54 PM 80.6 °F 33.8 °F 18% 29.89 in 10.0 mi NE 16.1 mph 20.7 mph N/A   Clear
5:14 PM 78.8 °F 35.6 °F 21% 29.89 in 10.0 mi NNE 12.7 mph - N/A   Clear
5:34 PM 77.0 °F 33.8 °F 21% 29.90 in 10.0 mi NE 18.4 mph 24.2 mph N/A   Clear
5:54 PM 75.2 °F 32.0 °F 21% 29.90 in 10.0 mi NNE 17.3 mph 25.3 mph N/A   Clear
6:14 PM 73.4 °F 32.0 °F 22% 29.91 in 10.0 mi NNE 15.0 mph 26.5 mph N/A   Clear
6:34 PM 71.6 °F 30.2 °F 22% 29.92 in 10.0 mi NNE 17.3 mph 24.2 mph N/A   Clear
6:54 PM 71.6 °F 30.2 °F 22% 29.93 in 10.0 mi NNE 15.0 mph - N/A   Clear
7:14 PM 69.8 °F 30.2 °F 23% 29.94 in 10.0 mi NNE 15.0 mph 19.6 mph N/A   Clear
7:34 PM 68.0 °F 30.2 °F 24% 29.95 in 10.0 mi North 13.8 mph 20.7 mph N/A   Clear
7:54 PM 66.2 °F 33.8 °F 30% 29.96 in 10.0 mi NNE 19.6 mph 24.2 mph N/A   Clear
8:14 PM 64.4 °F 35.6 °F 34% 29.96 in 10.0 mi NNE 19.6 mph 26.5 mph N/A   Clear
8:34 PM 62.6 °F 35.6 °F 37% 29.98 in 10.0 mi NNE 13.8 mph 19.6 mph N/A   Clear
8:54 PM 60.8 °F 37.4 °F 42% 29.99 in 10.0 mi NNE 15.0 mph 21.9 mph N/A   Clear
9:14 PM 60.8 °F 37.4 °F 42% 29.99 in 10.0 mi NNE 13.8 mph - N/A   Clear
9:34 PM 59.0 °F 37.4 °F 45% 29.99 in 10.0 mi NNE 15.0 mph 19.6 mph N/A   Clear
9:54 PM 57.2 °F 39.2 °F 51% 30.01 in 10.0 mi NNE 10.4 mph - N/A   Clear
10:14 PM 57.2 °F 39.2 °F 51% 30.00 in 10.0 mi North 8.1 mph 16.1 mph N/A   Scattered Clouds
10:34 PM 55.4 °F 39.2 °F 54% 30.01 in 10.0 mi North 9.2 mph - N/A   Mostly Cloudy
10:54 PM 55.4 °F 41.0 °F 58% 30.00 in 10.0 mi NNE 10.4 mph - N/A   Mostly Cloudy
11:14 PM 55.4 °F 41.0 °F 58% 29.99 in 10.0 mi NNE 9.2 mph - N/A Thunderstorm Thunderstorm
11:34 PM 55.4 °F 39.2 °F 54% 30.00 in 10.0 mi NNE 11.5 mph 16.1 mph N/A   Overcast
11:54 PM 55.4 °F 39.2 °F 54% 30.00 in 10.0 mi NNE 10.4 mph 19.6 mph N/A   Overcast